Content
SEND FEEDBACK

Daily
Averages
Monthly
Summary
United States of America

POINT MARION, PENNSYLVANIA


Home > North America > United States > Pennsylvania
Elevation: 909 feet     Latitude: 39 47N     Longitude: 079 55W

WEATHER
 
SELECT A DAY
Number of Records: 213,791;   Date Range: 1/1/95 - 8/30/14
 
SHARE

PRINT THIS DATA

[ ← Previous Day ]
WEATHER ALMANAC - JANUARY 31, 2013
[ Next Day → ]
[ °C ]   °F
Weather ElementAverageHighLow
Temperature29.3 °F46.9 °F (12:53 am)24.8 °F (2:05 pm)
Dewpoint21.2 °F43 °F (12:53 am)10 °F (4:53 pm)
Humidity72.3 %87 % (1:08 am)51 % (4:53 pm)
Barometer29.70 in29.91 in (9:53 pm)29.29 in (12:53 am)
Wind Speed10.8 mph19.6 mph (1:08 am)
Wind Gust41.4 mph (1:08 am)
Weather ElementAverage
Visibility6.5 mi
Wind DirectionSW (222.7 °)

Weather ElementTotal
Precipitation0.26 in
Heating Degree Days29.2 (Base 65)
Averaged from 49 records on January 31, 2013
WEATHER CONDITIONS BREAKOUT
WIND DIRECTION BREAKOUT
WEATHER BY HOUR - JANUARY 31, 2013
[ °C ]   °F
Local TimeTemperatureDewpointHumidityBarometerVisibilityWind DirectionWind SpeedGust SpeedPrecipitationEventsConditions
12:53 AM46.9 °F43.0 °F86 %29.29 in10.0 miSSW (210°)6.9 mph0.04 inOvercast
1:08 AM41.0 °F37.4 °F87 %29.33 in3.0 miWNW (290°)19.6 mph41.4 mph0.05 inRainHeavy Rain
1:19 AM42.8 °F33.8 °F70 %29.34 in10.0 miWest (260°)12.7 mph31.1 mph0.05 inRainLight Rain
1:41 AM41.0 °F35.6 °F81 %29.36 in10.0 miWest (270°)13.8 mph21.9 mph0.05 inRainLight Rain
1:53 AM39.9 °F34.0 °F79 %29.40 in10.0 miWNW (290°)12.7 mph26.5 mph0.05 inRainLight Rain
2:53 AM36.0 °F30.0 °F79 %29.45 in10.0 miWest (280°)15.0 mph33.4 mph0.02 inOvercast
3:53 AM35.1 °F27.0 °F72 %29.48 in10.0 miWest (270°)15.0 mph26.5 mph0.00 inOvercast
4:05 AM35.6 °F24.8 °F65 %29.49 in10.0 miWest (270°)16.1 mph32.2 mphOvercast
4:53 AM33.1 °F24.1 °F70 %29.52 in10.0 miWSW (250°)11.5 mph26.5 mphOvercast
5:53 AM30.9 °F26.1 °F82 %29.57 in6.0 miWNW (290°)11.5 mph20.7 mph0.00 inSnowLight Snow
6:32 AM30.2 °F21.2 °F69 %29.59 in10.0 miWest (260°)12.7 mph26.5 mph0.00 inOvercast
6:53 AM30.9 °F23.0 °F72 %29.61 in9.0 miWSW (250°)10.4 mph18.4 mph0.00 inOvercast
7:53 AM30.9 °F19.9 °F64 %29.65 in10.0 miWest (260°)11.5 mph25.3 mphOvercast
8:53 AM30.0 °F19.9 °F66 %29.68 in6.0 miWNW (290°)15.0 mph26.5 mphHaze
8:56 AM28.4 °F21.2 °F74 %29.67 in1.5 miWNW (290°)16.1 mph26.5 mph0.00 inSnowLight Snow
9:08 AM28.4 °F19.4 °F69 %29.68 in3.0 miWest (280°)11.5 mph23.0 mph0.00 inSnowLight Snow
9:53 AM28.9 °F17.1 °F61 %29.71 in10.0 miWest (280°)12.7 mph21.9 mph0.00 inOvercast
10:53 AM28.0 °F15.1 °F58 %29.75 in10.0 miWest (280°)19.6 mph29.9 mphOvercast
11:53 AM28.9 °F18.0 °F64 %29.77 in10.0 miWSW (250°)10.4 mph24.2 mphOvercast
12:05 PM28.4 °F19.4 °F69 %29.74 in8.0 miWest (280°)12.7 mph21.9 mphOvercast
12:12 PM26.6 °F21.2 °F80 %29.76 in1.5 miWNW (290°)15.0 mph24.2 mph0.00 inSnowLight Snow
12:20 PM26.6 °F21.2 °F80 %29.74 in0.5 miWest (260°)11.5 mph24.2 mph0.00 inFog-SnowLight Snow
12:26 PM26.6 °F21.2 °F80 %29.75 in2.5 miWSW (250°)10.4 mph19.6 mph0.00 inSnowLight Snow
12:49 PM26.6 °F21.2 °F80 %29.75 in0.5 miWest (270°)8.1 mph20.7 mph0.00 inFog-SnowLight Snow
12:53 PM26.1 °F21.9 °F84 %29.78 in0.8 miWest (270°)9.2 mph19.6 mph0.00 inSnowLight Snow
12:59 PM26.6 °F21.2 °F80 %29.75 in2.0 miWest (280°)10.4 mph18.4 mph0.00 inSnowLight Snow
1:09 PM26.6 °F21.2 °F80 %29.75 in1.0 miVariable6.9 mph19.6 mph0.00 inSnowLight Snow
1:32 PM26.6 °F21.2 °F80 %29.74 in3.0 miVariable6.9 mph0.00 inSnowLight Snow
1:39 PM28.4 °F19.4 °F69 %29.74 in6.0 miVariable5.8 mph0.00 inHaze
1:53 PM28.9 °F19.0 °F67 %29.77 in10.0 miVariable6.9 mph20.7 mph0.00 inOvercast
1:59 PM28.4 °F19.4 °F69 %29.75 in2.0 miWest (280°)12.7 mph20.7 mph0.00 inSnowLight Snow
2:02 PM26.6 °F19.4 °F74 %29.76 in0.8 miWNW (290°)12.7 mph21.9 mph0.00 inSnowLight Snow
2:05 PM24.8 °F21.2 °F86 %29.76 in0.2 miWNW (290°)12.7 mph21.9 mph0.00 inFog-SnowLight Snow
2:12 PM24.8 °F21.2 °F86 %29.77 in0.2 miWest (280°)13.8 mph23.0 mph0.00 inFog-SnowLight Snow
2:18 PM26.6 °F19.4 °F74 %29.77 in1.0 miWSW (250°)17.3 mph28.8 mph0.00 inSnowLight Snow
2:46 PM26.6 °F17.6 °F69 %29.79 in7.0 miWest (260°)11.5 mph23.0 mph0.00 inOvercast
2:53 PM27.0 °F15.1 °F61 %29.83 in10.0 miWest (260°)10.4 mph28.8 mph0.00 inMostly Cloudy
3:53 PM26.1 °F10.9 °F53 %29.87 in10.0 miWSW (250°)9.2 mph21.9 mphOvercast
4:53 PM26.1 °F10.0 °F51 %29.88 in10.0 miVariable5.8 mphOvercast
5:53 PM26.1 °F10.0 °F51 %29.88 in10.0 miSW (230°)6.9 mphPartly Cloudy
6:53 PM26.1 °F10.0 °F51 %29.89 in10.0 miSW (230°)12.7 mph21.9 mphPartly Cloudy
7:53 PM25.0 °F12.9 °F60 %29.90 in10.0 miVariable6.9 mphScattered Clouds
9:53 PM25.0 °F17.1 °F72 %29.91 in6.0 miSW (220°)8.1 mph0.00 inSnowLight Snow
10:28 PM24.8 °F17.6 °F74 %29.86 in10.0 miSSW (210°)5.8 mph0.00 inOvercast
10:53 PM25.0 °F18.0 °F75 %29.90 in10.0 miSSW (200°)5.8 mph0.00 inOvercast
11:10 PM24.8 °F19.4 °F80 %29.84 in10.0 miSSW (210°)6.9 mphMostly Cloudy
11:25 PM24.8 °F19.4 °F80 %29.84 in10.0 miSSW (210°)4.6 mphOvercast
11:50 PM24.8 °F19.4 °F80 %29.83 in5.0 miSW (220°)4.6 mph0.00 inSnowLight Snow
11:53 PM25.0 °F19.9 °F81 %29.87 in4.0 miVariable4.6 mph0.00 inSnowLight Snow
Hourly data recorded from KMGW, located miles away from Point Marion, Pennsylvania







STORIES FROM OUR PARTNERS